{"data":{"norad_id":58738,"epoch":"2026-05-25T01:11:32.047008Z","epoch_age_seconds":64515,"freshness":"FRESH","line1":"1 58738U 24005L   26145.04967647  .00000556  00000+0  29740-4 0  9994","line2":"2 58738  43.0041 148.3608 0001582 278.1837  81.8835 15.27577197132119","mean_motion":15.27577197,"eccentricity":0.0001582,"inclination_deg":43.0041,"raan_deg":148.3608,"arg_perigee_deg":278.1837,"mean_anomaly_deg":81.8835,"bstar":2.974e-5,"rev_number":13211,"period_min":94.266921686708,"perigee_km":481.97204827466,"apogee_km":484.14293021106,"semimajor_km":6861.1944892429,"source":"CELESTRAK","updated_at":"2026-05-25T13:38:18.720756Z"}}